{"data":{"norad_id":49194,"intl_designator":"2021-083J","name":"ONEWEB-0325","alt_names":[],"object_type":"PAYLOAD","status":"ACTIVE","operator":null,"country":"UK","launch_date":"2021-09-14","launch_site_code":"TYMSC","launch_vehicle":null,"mission":null,"orbit_class":"UNKNOWN","rcs_meters":null,"size_class":null,"mass_kg":null,"dimensions":null,"purposes":["comms"],"wikipedia_slug":null,"has_3d_model":false,"image_url":null,"decayed_at":null,"tle_current":{"epoch":"2026-05-25T01:43:51.073824Z","epoch_age_seconds":69612,"freshness":"FRESH","line1":"1 49194U 21083J   26145.07211891 -.00000029  00000+0 -10723-3 0  9996","line2":"2 49194  87.9161 340.0597 0001874  86.6088 273.5258 13.18685852226969","mean_motion":13.18685852,"eccentricity":0.0001874,"inclination_deg":87.9161,"raan_deg":340.0597,"arg_perigee_deg":86.6088,"mean_anomaly_deg":273.5258,"bstar":-0.00010723,"rev_number":22696,"period_min":109.19962459717,"perigee_km":1188.3254722687,"apogee_km":1191.1619139525,"semimajor_km":7567.8806931106,"source":"CELESTRAK","updated_at":"2026-05-25T13:38:22.490454Z"}}}